sat.trackr.live / text

‹ back to catalog

STARLINK-31565

NORAD 59323 · 2024-057D

PAYLOAD ACTIVE UNKNOWN

§ Identity

Operator
Country
US
Launch date
2024-03-25
Launch site
AFETR
Launch vehicle
Mass (kg)
RCS (m²)

Purposes: comms

External: N2YO · Heavens-Above · Gunter

§ Orbital elements

Epoch: 2026-09-20T04:03:27.600480Z

Period
94.27 min
Inclination
43.0006°
Eccentricity
0.0001163
Mean motion
15.27580109 rev/d
Perigee alt
482.3 km
Apogee alt
483.8 km
Semi-major
6,861.2 km
B*
5.5008e-5
RAAN
176.4188°
Arg perigee
273.2724°
Mean anomaly
86.7994°
Rev number
13,949

§ Raw data

STARLINK-315651 59323U 24057D   26263.16906945  .00001252  00000+0  55008-4 0  99902 59323  43.0006 176.4188 0001163 273.2724  86.7994 15.27580109139497

JSON: /api/v1/satellites/59323 · /tle

For live sub-satellite position, see the globe view (requires WebGL).

§ Visibility from observer

Set your observer location to see the next 7 days of passes ≥ 10°. The values pass through the URL so the page stays shareable.

No JS? Fill the form by hand. The geolocation button needs JavaScript.